WO0TEN Weather Reports


Display with metric or nautical units.
time (UTC)temp
F
wind
direction
speed
MPH
gust
MPH
rain 1hr
in
rain 24hr
in
rain mn
in
humidity
%
barometer
mb
20260509061108 72 180 0.0 0.0 0.00 0.00 0.29 9
20260509060108 72 203 0.0 0.0 0.00 0.00 0.29 9
20260509055107 72 203 0.0 0.0 0.00 0.00 0.29 9
20260509054106 72 203 0.0 0.0 0.00 0.00 0.29 9
20260509053106 72 203 0.0 0.0 0.00 0.00 0.29 9
20260509052107 72 225 0.0 0.0 0.00 0.00 0.29 9
20260509051107 72 203 0.0 0.0 0.00 0.00 0.29 9
20260509050108 72 203 0.0 0.0 0.00 0.00 0.29 9
20260509045107 72 225 0.0 0.0 0.00 0.00 0.29 9
20260509044107 72 225 0.0 0.0 0.00 0.00 0.29 9
20260509043107 72 248 0.0 0.0 0.00 0.00 0.29 9
20260509042108 72 225 0.0 0.0 0.00 0.00 0.29 9
20260509041107 72 225 0.0 0.0 0.00 0.00 0.29 9
20260509040108 72 248 0.0 0.0 0.00 0.00 0.29 9
20260509035108 71 270 0.0 0.0 0.00 0.00 0.29 9
20260509034107 71 270 0.0 0.0 0.00 0.00 0.29 9
20260509033107 71 225 0.0 0.0 0.00 0.00 0.29 9
20260509032107 71 225 0.0 0.0 0.00 0.00 0.29 9
20260509031107 71 248 0.0 0.0 0.00 0.00 0.29 9
20260509030107 71 270 0.0 0.0 0.00 0.00 0.29 9
20260509025107 71 225 0.0 0.0 0.00 0.00 0.29 9
20260509024107 71 270 0.0 0.0 0.00 0.00 0.29 9
20260509023107 71 248 0.0 0.0 0.00 0.00 0.29 9
20260509022107 71 225 0.0 0.0 0.00 0.00 0.29 9
20260509021108 72 180 0.0 0.0 0.00 0.00 0.29 9
20260509020107 72 180 0.0 0.0 0.00 0.00 0.29 9
20260509015106 73 225 0.0 0.0 0.00 0.00 0.29 9
20260509014106 73 225 0.0 0.0 0.00 0.00 0.29 8
20260509013107 73 225 0.0 0.0 0.00 0.00 0.29 8
20260509012107 73 248 0.0 0.0 0.00 0.00 0.29 8
20260509011107 74 203 0.0 0.0 0.00 0.00 0.29 8
20260509010107 74 203 0.0 0.0 0.00 0.00 0.29 8
20260509005106 74 248 0.0 0.0 0.00 0.00 0.29 8
20260509004107 75 225 0.0 0.0 0.00 0.00 0.29 8
20260509003107 75 203 0.0 0.0 0.00 0.00 0.29 8
20260509002107 75 225 0.0 0.0 0.00 0.00 0.29 8
20260509001107 75 225 0.0 0.0 0.00 0.00 0.29 8
20260509000107 75 203 0.0 0.0 0.00 0.00 0.29 8
20260508235108 75 203 0.0 0.0 0.00 0.00 0.29 8
20260508234106 75 203 0.0 0.0 0.00 0.00 0.29 8
20260508233106 75 225 0.0 0.0 0.00 0.00 0.29 8
20260508232107 76 248 1.0 0.0 0.00 0.00 0.29 8
20260508231107 76 135 1.0 0.0 0.00 0.00 0.29 8
20260508230107 76 225 1.0 0.0 0.00 0.00 0.29 8
20260508225106 77 225 0.0 0.0 0.00 0.00 0.29 8
20260508224107 77 203 0.0 0.0 0.00 0.00 0.29 8
20260508223107 77 203 2.0 0.0 0.00 0.00 0.29 8
20260508222106 77 180 0.0 0.0 0.00 0.00 0.29 8
20260508221107 78 248 0.0 0.0 0.00 0.00 0.29 7
20260508220107 78 203 0.0 0.0 0.00 0.00 0.29 7
20260508215107 79 248 0.0 0.0 0.00 0.00 0.29 7
20260508214107 79 248 1.0 0.0 0.00 0.00 0.29 7
20260508213108 78 225 0.0 0.0 0.00 0.00 0.29 7
20260508212107 79 293 0.0 0.0 0.00 0.00 0.29 7
20260508211106 79 203 1.0 0.0 0.00 0.00 0.29 7
20260508210108 79 203 3.0 0.0 0.00 0.00 0.29 7
20260508205108 80 225 0.0 0.0 0.00 0.00 0.29 7
20260508204107 77 248 1.0 0.0 0.00 0.00 0.29 7
20260508203107 77 180 3.0 0.0 0.00 0.00 0.29 7
20260508202108 77 203 3.0 0.0 0.00 0.00 0.29 7
20260508201108 78 180 2.0 0.0 0.00 0.00 0.29 7
20260508200107 77 225 3.0 0.0 0.00 0.00 0.29 7
20260508195108 77 180 2.0 0.0 0.00 0.00 0.29 7
20260508194106 75 180 1.0 0.0 0.00 0.00 0.29 8
20260508193107 76 180 1.0 0.0 0.00 0.00 0.29 7
20260508192107 75 180 0.0 0.0 0.00 0.00 0.29 8
20260508191107 75 248 2.0 0.0 0.00 0.00 0.29 7
20260508190107 74 203 1.0 0.0 0.00 0.00 0.29 8
20260508185106 73 225 0.0 0.0 0.00 0.00 0.29 8
20260508184107 73 248 0.0 0.0 0.00 0.00 0.29 8
20260508183107 73 180 1.0 0.0 0.00 0.00 0.29 8
20260508182108 72 225 0.0 0.0 0.00 0.00 0.29 8
20260508181107 72 203 0.0 0.0 0.00 0.00 0.29 8
20260508180107 72 270 1.0 0.0 0.00 0.00 0.29 8
20260508175108 72 203 0.0 0.0 0.00 0.00 0.29 8
20260508174108 72 203 0.0 0.0 0.00 0.00 0.29 8
20260508173107 71 203 0.0 0.0 0.00 0.00 0.29 8
20260508172108 71 203 2.0 0.0 0.00 0.00 0.29 8
20260508171107 70 225 0.0 0.0 0.00 0.00 0.29 8
20260508170106 70 225 0.0 0.0 0.00 0.00 0.29 8
20260508165107 69 68 0.0 0.0 0.00 0.00 0.30 8
20260508164107 68 270 1.0 0.0 0.00 0.00 0.30 8
20260508163108 68 248 0.0 0.0 0.00 0.00 0.30 8
20260508162107 68 248 0.0 0.0 0.00 0.00 0.30 8
20260508161107 68 270 0.0 0.0 0.00 0.00 0.30 8
20260508160107 68 203 0.0 0.0 0.00 0.00 0.30 8
20260508155107 67 225 0.0 0.0 0.00 0.00 0.30 8
20260508154107 67 180 0.0 0.0 0.00 0.00 0.30 8
20260508153107 67 203 0.0 0.0 0.00 0.00 0.30 8
20260508152107 67 270 0.0 0.0 0.00 0.00 0.30 8
20260508151107 67 293 0.0 0.0 0.00 0.00 0.30 8
20260508150106 66 270 1.0 0.0 0.00 0.00 0.30 8
20260508145107 66 225 0.0 0.0 0.00 0.00 0.30 8
20260508144106 65 270 0.0 0.0 0.00 0.00 0.30 8
20260508143107 64 203 0.0 0.0 0.00 0.00 0.30 8
20260508142106 64 248 1.0 0.0 0.00 0.00 0.30 8
20260508141107 64 203 0.0 0.0 0.00 0.00 0.30 8
20260508140107 64 225 1.0 0.0 0.00 0.00 0.30 8
20260508135107 63 225 0.0 0.0 0.00 0.00 0.30 8
20260508134107 62 248 0.0 0.0 0.00 0.00 0.30 9
20260508133107 62 248 0.0 0.0 0.00 0.00 0.30 9
20260508132108 61 203 0.0 0.0 0.00 0.00 0.30 9
20260508131107 61 225 0.0 0.0 0.00 0.00 0.30 9
20260508130107 60 203 0.0 0.0 0.00 0.00 0.30 9
20260508125106 60 270 0.0 0.0 0.00 0.00 0.30 9
20260508124106 60 248 0.0 0.0 0.00 0.00 0.30 9
20260508123108 60 225 0.0 0.0 0.00 0.00 0.30 9
20260508122108 60 225 0.0 0.0 0.00 0.00 0.30 9
20260508121108 59 225 0.0 0.0 0.00 0.00 0.30 9
20260508120107 59 248 0.0 0.0 0.00 0.00 0.30 9
20260508115107 59 225 0.0 0.0 0.00 0.00 0.30 9
20260508114107 59 248 0.0 0.0 0.00 0.00 0.30 9
20260508113107 59 248 0.0 0.0 0.00 0.00 0.30 9
20260508112106 59 158 0.0 0.0 0.00 0.00 0.30 9
20260508111107 59 180 0.0 0.0 0.00 0.00 0.30 9
20260508110106 59 158 0.0 0.0 0.00 0.00 0.30 9
20260508105106 59 180 0.0 0.0 0.00 0.00 0.30 9
20260508104107 59 180 0.0 0.0 0.00 0.00 0.30 9
20260508103106 60 180 0.0 0.0 0.00 0.00 0.30 9
20260508102106 60 158 0.0 0.0 0.00 0.00 0.30 9
20260508101107 60 203 0.0 0.0 0.00 0.00 0.30 9
20260508100106 60 180 0.0 0.0 0.00 0.00 0.30 9
20260508095108 59 158 0.0 0.0 0.00 0.00 0.30 9
20260508094106 59 203 0.0 0.0 0.00 0.00 0.30 9
20260508093106 59 180 0.0 0.0 0.00 0.00 0.30 9
20260508092107 59 158 0.0 0.0 0.00 0.00 0.30 9
20260508091107 59 180 0.0 0.0 0.00 0.00 0.30 9
20260508090107 59 203 0.0 0.0 0.00 0.00 0.30 9
20260508085106 59 203 0.0 0.0 0.00 0.00 0.30 9
20260508084107 59 203 0.0 0.0 0.00 0.00 0.30 9
20260508083108 59 203 0.0 0.0 0.00 0.00 0.30 9
20260508082107 59 158 0.0 0.0 0.00 0.00 0.30 9
20260508081107 58 158 0.0 0.0 0.00 0.00 0.30 9
20260508080107 58 248 0.0 0.0 0.00 0.00 0.30 9
20260508075107 58 180 0.0 0.0 0.00 0.00 0.30 9
20260508074106 58 180 0.0 0.0 0.00 0.00 0.30 9
20260508073106 58 203 0.0 0.0 0.00 0.00 0.30 9
20260508072107 58 225 0.0 0.0 0.00 0.00 0.30 9
20260508071107 57 203 0.0 0.0 0.00 0.00 0.30 9
20260508070106 57 203 0.0 0.0 0.00 0.00 0.30 9
20260508065107 57 203 0.0 0.0 0.00 0.00 0.30 9
20260508064106 57 203 0.0 0.0 0.00 0.00 0.30 9
20260508063107 57 248 0.0 0.0 0.00 0.00 0.30 9
20260508062107 57 203 0.0 0.0 0.00 0.00 0.30 9